STARLINK-33638, 63436

Orbit data source: Space-Track

STARLINK-33638, 63436 is a payload satellite owned by SpaceX/Seattle (US) in LEO that was launched on Fri, 04 Apr 2025 UTC via an FALCON 9 launch vehicle from the Air Force Western Test Range (AFWTR). Payload-class satellites include a variety of spacecraft equipped with specific instruments for various scientific and technological missions. These include communications satellites like Starlink; space stations such as the ISS; scientific satellites like the Hubble; Earth observation satellites from companies like Planet Labs, Umbra, and HawkEye 360; GPS; miniature CubeSats for education and research; and military/defense satellites.

Loading next visibility...
Identifier
63436, 2025-069D
Orbit
LEO
Country
Flag of USUS
Related business
Manufacturer
SpaceX/Seattle
Mission
Operational Commercial Communications
Bus & Motor
STARLINK V2MO, Unknown motor
Mass
575 kg wet, ~530 kg dry
Launch date (UTC)
2025-04-04 (8 months ago)
Launch vehicle
FALCON 9
Launch site
Air Force Western Test Range (AFWTR)
Object type
Payload
Rocket body
Debris
Shape & HBR
Box + 2 Pan, 17.7 m
Radar Cross Section
36.964 m², Large (>1 m²)

Expand to show TLE details & history
Last TLE update: 17 hours ago

TLE from 17 hours ago
0 STARLINK-33638
1 63436U 25069D   25348.91874483  .00011755  00000-0  40839-3 0  9996
2 63436  53.1591 176.3947 0001304  84.4296 275.6854 15.30199819 40429
Epoch: 2025-12-14T22:02Z
TLE epoch observation values (Epoch: 2025-12-14T22:02:59.553Z)
Latitude
0.00003°
Longitude
121.82182°
Altitude
476.027 km
Speed
7.629 km/s
True Right ascension
11h 45m 34s
True Declination
0° 00' 00"
Sunlit
Object was in daylight at epoch
Visualization orbit readout
Latitude
Unknown
Longitude
Unknown
Altitude
Unknown
Speed
Unknown
Apparent Right ascension
Unknown
Apparent Declination
Unknown
Sunlit
N/A
Visualization observer readout
Local Sidereal Time
13:24:35
Azimuth
Unknown
Elevation
Unknown
Doppler factor
Unknown
Orbital elements
Apogee altitude
476.366 km
Perigee altitude
474.578 km
Semi-major axis
6,853.609 km
Eccentricity
0.00013
Inclination
53.1591°
RAAN
176.3947°
Arg. of periapsis
84.4296°
True anomaly
275.67053°
Mean anomaly
275.6854°
Eccentric anomaly
275.67797°
Mean motion
3.82529 °/min
Orbital period
94.11 mins
BSTAR
0.00040839
Loading maneuver chart data...
Computing Atmospheric mass density...
Loading historical data...
Loading historical data...
Loading historical data...
Loading historical data...
Loading historical data...
Loading historical data...
Loading historical data...

Documentation

Showing up to 5 results
|